Content
SEND FEEDBACK

Daily
Averages
Monthly
Summary
Mauritania

NOUADHIBOU, MAURITANIA


Home > Africa > Mauritania
Elevation: 10 feet     Latitude: 20 56N     Longitude: 017 02W

WEATHER
 
SELECT A DAY
Number of Records: 121,973;   Date Range: 7/1/96 - 11/22/14
 
SHARE

PRINT THIS DATA

[ ← Previous Day ]
WEATHER ALMANAC - JANUARY 18, 2013
[ Next Day → ]
[ °C ]   °F
Weather ElementAverageHighLow
Temperature65.1 °F80 °F (3:00 pm)57.2 °F (8:00 am)
Dewpoint42.2 °F58 °F (6:00 pm)21.2 °F (8:00 am)
Humidity44.4 %82 % (11:00 pm)10 % (3:00 pm)
Barometer30.09 in30.18 in (10:00 am)30.01 in (6:00 pm)
Wind Speed12.2 mph19.6 mph (10:00 pm)
Weather ElementAverage
Visibility4.5 mi
Wind DirectionSSE (172.3 °)

Weather ElementTotal
Precipitation---
Cooling Degree Days3.6 (Base 65)
Growing Degree Days18.6 (Base 50)
Averaged from 31 records on January 18, 2013
WEATHER CONDITIONS BREAKOUT
WIND DIRECTION BREAKOUT
WEATHER BY HOUR - JANUARY 18, 2013
[ °C ]   °F
Local TimeTemperatureDewpointHumidityBarometerVisibilityWind DirectionWind SpeedGust SpeedPrecipitationEventsConditions
12:00 AM62.6 °F39.2 °F42 %30.12 in3.7 miNorth (360°)10.4 mphWidespread Dust
1:00 AM62.6 °F41.0 °F45 %30.09 in3.7 miNNE (20°)8.1 mphWidespread Dust
2:00 AM62.6 °F41.0 °F45 %30.09 in3.7 miNNE (30°)8.1 mphWidespread Dust
3:00 AM62.0 °F31.0 °F19 %30.11 in2.0 miNorth10.4 mphWidespread Dust
3:00 AM62.6 °F24.8 °F24 %30.06 in3.7 miNorth (10°)11.5 mphWidespread Dust
4:00 AM60.8 °F39.2 °F45 %30.06 in3.7 miNNE (20°)9.2 mphWidespread Dust
5:00 AM60.8 °F39.2 °F45 %30.06 in3.7 miNNE (20°)12.7 mphWidespread Dust
6:00 AM62.6 °F28.4 °F27 %30.09 in3.7 miNE (40°)12.7 mphWidespread Dust
6:00 AM62.0 °F37.0 °F28 %30.11 in2.0 miNE (40°)11.5 mphWidespread Dust
7:00 AM59.0 °F33.8 °F39 %30.09 in3.7 miNorth (360°)11.5 mph
8:00 AM57.2 °F21.2 °F25 %30.12 in5.0 miNorth (360°)10.4 mph
9:00 AM59.0 °F39.0 °F36 %30.17 in5.0 miNorth9.2 mphPartly Cloudy
9:00 AM59.0 °F33.8 °F39 %30.15 in5.0 miNorth (10°)9.2 mph
10:00 AM60.8 °F33.8 °F36 %30.18 in5.0 miNorth (360°)12.7 mph
11:00 AM64.4 °F39.2 °F40 %30.18 in5.0 miNorth (10°)13.8 mph
12:00 PM68.0 °F41.0 °F37 %30.15 in5.0 miNNE (20°)11.5 mph
12:00 PM67.0 °F44.0 °F31 %30.18 in5.0 miNNE (20°)11.5 mphPartly Cloudy
1:00 PM71.6 °F39.2 °F31 %30.12 in5.0 miNNE (20°)10.4 mph
2:00 PM75.2 °F37.4 °F25 %30.06 in5.0 miNorth (10°)9.2 mph
3:00 PM80.0 °F34.0 °F10 %30.06 in5.0 miNorth13.8 mphPartly Cloudy
3:00 PM78.8 °F33.8 °F20 %30.04 in5.0 miNorth (360°)15.0 mph
4:00 PM69.8 °F53.6 °F56 %30.04 in5.0 miNW (320°)15.0 mph
5:00 PM68.0 °F57.2 °F68 %30.04 in5.0 miNW (310°)13.8 mph
6:00 PM68.0 °F57.2 °F68 %30.01 in5.0 miNW (320°)13.8 mph
6:00 PM68.0 °F58.0 °F63 %30.04 in5.0 miNW (310°)15.0 mphPartly Cloudy
7:00 PM66.2 °F55.4 °F68 %30.04 in5.0 miNNW (330°)11.5 mph
8:00 PM66.2 °F55.4 °F68 %30.06 in5.0 miNNW (330°)13.8 mph
9:00 PM64.0 °F56.0 °F69 %30.09 in5.0 miNNW (330°)12.7 mphScattered Clouds
9:00 PM64.4 °F53.6 °F68 %30.06 in5.0 miNNW (330°)13.8 mph
10:00 PM62.6 °F55.4 °F77 %30.09 in5.0 miNNW (340°)19.6 mph
11:00 PM60.8 °F55.4 °F82 %30.09 in5.0 miNorth (350°)16.1 mph
Hourly data recorded from GQPP, located miles away from Nouadhibou, Mauritania







STORIES FROM OUR PARTNERS